Temp_Advection
nan nan nan nan nan nan nan nan nan nan nan nan nan nan nan nan nan nan nan nan nan nan nan nan nan nan nan nan nan nan nan nan nan nan nan nan nan nan nan nan nan nan nan nan nan nan nan nan nan nan nan nan nan nan nan nan nan nan nan nan nan nan
nan 0 1 1 0 -0 -0 -0 0 0 0 0 0 0 0 0 0 -0 -0 -0 -0 -0 -0 0 0 -0 -0 -0 -0 -0 -0 -0 -0 -0 -0 -0 -0 -0 -0 -0 -0 -0 -0 0 -0 -0 0 -0 -0 -0 -0 -0 -0 0 -0 0 0 0 -0 0 0 nan
nan 0 0 0 0 0 -0 0 0 0 0 -0 0 0 0 0 0 0 -0 -0 -0 -0 0 0 -0 -0 -0 -0 -0 -0 -0 -0 -0 -0 -0 -0 -0 -0 -0 -0 -0 -0 -0 -0 -0 -0 -0 -0 -0 -0 -0 -0 -0 -0 -0 0 -0 -0 -0 0 0 nan
nan 0 0 0 0 0 0 0 0 0 0 0 0 0 0 0 0 0 0 -0 -0 -0 0 0 -0 0 -0 -0 -0 -0 -0 -0 -0 -0 -0 -0 -0 -0 -0 -0 -0 -0 -0 -0 -0 -0 -0 -0 -0 -0 -0 -0 -0 -0 -0 -0 -0 -0 -0 -0 0 nan
nan 0 0 1 1 1 0 0 0 0 0 0 0 0 0 0 -0 -0 0 -0 0 -0 0 0 -0 -0 0 0 -0 -0 0 -0 -0 -0 -0 0 0 -0 -0 -0 -0 -0 -0 -0 -0 -0 -0 -0 -0 -0 -0 -0 -0 -0 -0 -0 -0 -0 -0 -0 0 nan
nan -0 0 1 1 1 0 0 0 0 0 0 0 0 0 -0 -0 -0 -0 -0 0 -0 -0 -0 -0 -0 -0 0 -0 -0 0 -0 -0 -0 -0 -0 -0 -0 -0 -0 -0 -0 -0 -0 -0 0 -0 0 0 -0 -0 -0 -0 0 0 -0 -0 0 0 -0 -0 nan
nan 0 0 0 0 0 0 0 -0 -0 0 0 -0 0 -0 -0 -0 -0 -0 -0 0 -0 -0 -0 -0 -0 -0 -0 0 0 -0 -0 -0 -0 -0 -0 -0 -0 -0 -0 -0 -0 -0 -0 -0 -0 0 -0 -0 -0 -0 -0 -0 0 0 0 -0 -0 0 0 -0 nan
nan 0 0 0 -0 -0 -0 -0 -0 0 0 -0 -0 0 -0 -0 -0 -0 -0 -0 -0 0 0 0 -0 -0 -0 -0 0 -0 -0 -0 0 -0 0 0 0 0 -0 -0 0 -0 -0 -0 -0 -0 0 -0 0 -0 -0 -0 -0 -0 0 0 0 0 0 0 0 nan
nan 0 0 -0 -0 -0 -0 0 -0 0 -0 -0 0 -0 -1 -0 0 0 0 -0 -0 -0 0 0 0 0 0 -0 -0 -0 -0 -0 0 -0 -0 0 0 0 -0 -0 0 -0 -0 -0 -0 0 0 0 0 0 -0 -0 -0 -0 -0 0 0 0 0 0 0 nan
nan 0 0 0 0 0 0 0 -0 -0 -0 -0 -0 -1 -0 0 0 0 0 0 -0 -0 0 0 0 0 0 0 -0 -0 -0 -0 -0 -0 -0 -0 -0 -0 0 0 0 0 -0 -0 -0 -0 -0 0 0 0 -0 -0 0 0 0 -0 0 -0 -0 0 -0 nan
nan 0 0 0 0 0 0 0 0 -0 -0 -0 -0 -0 0 0 0 0 0 0 0 -0 -0 -0 -0 -0 0 0 0 0 -0 -0 -0 -0 -0 -0 -0 -0 -0 0 0 -0 -0 -0 -0 0 -0 -0 0 0 -0 0 0 0 0 0 0 0 0 0 -0 nan
nan -0 -0 -0 -0 -0 -0 -0 -0 -0 0 0 0 0 0 0 0 0 0 0 0 0 -0 -0 -0 -0 -0 0 -0 0 0 0 0 0 0 0 0 -0 -0 0 0 -0 -0 -0 -0 -0 -0 -0 0 0 0 -0 -0 -0 -0 -0 0 0 0 0 -0 nan
nan -0 -0 -0 -0 -0 -0 -0 -0 -0 -0 0 0 0 0 0 0 0 0 0 0 0 0 0 -0 -0 -0 -0 0 0 0 -0 0 0 0 0 0 -0 -0 -0 0 -0 -0 -0 -0 -0 -0 -0 -0 -0 -0 -0 -0 -0 -0 -0 -0 0 0 -0 -0 nan
nan -0 -0 0 0 0 0 0 -0 -0 -0 -0 0 0 0 0 0 -0 -0 0 0 0 0 0 -0 -0 -0 -0 -0 -0 -0 -0 -0 -0 -0 -0 -0 -0 -0 -0 -0 0 0 0 0 0 -0 -0 -0 -0 -0 -0 -0 -0 -0 -0 -0 0 0 -0 -0 nan
nan -0 -0 0 0 0 0 0 0 0 -0 -0 -0 0 0 0 0 -0 -0 0 0 -0 -0 0 0 -0 0 -0 -0 -0 -0 -0 -0 -0 -0 -0 -0 -0 0 0 -0 -0 0 0 0 0 0 -0 -0 -0 -0 -0 -0 0 0 0 -0 0 0 0 -0 nan
nan -0 0 -0 -0 -0 0 0 0 0 0 -0 -0 0 0 0 0 -0 0 0 0 -0 -0 0 -0 -0 -0 -0 -0 -0 -0 -0 -0 -0 -0 -0 -0 -0 -0 0 0 -0 -0 -0 0 -0 0 -0 -0 -0 -0 -0 0 -0 -0 0 0 0 0 0 0 nan
nan 0 0 0 -0 -0 0 0 0 0 0 0 -0 -0 0 0 0 0 0 0 0 -0 -0 0 0 -0 -0 -0 -0 -0 -0 -0 -0 -0 -0 -0 -0 -0 -0 -0 -0 -0 -0 -0 -0 -0 -0 -0 -0 -0 -0 0 0 -0 -0 -0 0 0 0 0 0 nan
nan 0 0 0 0 -0 -0 0 0 0 0 0 -0 -0 0 0 0 0 0 0 0 -0 -0 -0 -0 -0 -0 -0 -0 -0 -0 -0 -0 -0 -0 -0 -0 -0 -0 -0 -0 -0 -0 -0 -0 -0 -0 -0 -0 -0 -0 -0 0 0 0 -0 -0 0 0 0 0 nan
nan -0 -0 0 0 0 -0 -0 -0 -0 -0 -0 0 -0 0 0 0 0 0 0 0 0 -0 -0 0 0 0 -0 -0 -0 -0 -0 -0 -0 -0 -0 -0 -0 -0 -0 -0 -0 -0 -0 -0 -0 -0 -0 -0 -0 -0 -0 -0 0 0 0 -0 -0 -0 -0 0 nan
nan -0 -0 -0 0 0 -0 -0 -0 -0 -0 0 0 -0 0 0 0 -0 0 0 0 0 0 0 0 0 0 0 0 0 -0 -0 -0 0 0 -0 -0 -0 -0 -0 0 -0 -0 0 0 -0 -0 -0 -0 -0 -0 -0 -0 -0 -0 0 0 -0 -0 -0 -0 nan
nan -0 -0 -0 -0 -0 -0 -0 0 -0 0 0 0 0 0 0 0 -0 -0 -0 -0 -0 -0 -0 -0 0 0 0 0 0 -0 -0 0 0 -0 0 0 -0 -0 -0 -0 0 -0 -0 0 0 -0 -0 -0 -1 -1 -0 0 0 0 -0 0 0 -0 -0 -0 nan
nan -0 0 0 0 0 -0 -0 -0 -0 0 0 0 -0 0 0 0 -0 -0 -0 -0 -0 -0 -0 0 0 0 0 0 0 -0 -0 0 0 0 -0 0 -0 -0 -0 -0 0 0 0 0 0 -0 -0 -0 -1 -1 -1 -1 -0 0 0 0 0 0 -0 -0 nan
nan 0 0 0 0 0 0 -0 -0 0 0 -0 -0 -0 0 0 0 -0 0 0 0 0 0 0 0 0 0 0 0 0 -0 -0 -0 0 0 0 -0 -0 -0 -0 -0 -0 -0 0 0 0 0 -0 -1 -1 -1 -1 -2 -2 -1 -0 0 0 0 -0 -0 nan
nan 0 0 0 0 0 0 0 0 0 0 -0 0 0 0 0 0 0 0 0 0 0 0 0 0 -0 -0 -0 0 0 0 -0 -0 -0 0 0 -0 -0 0 -0 -0 -0 -0 -0 -0 0 1 1 -0 -1 -1 -1 -1 -1 -1 -1 -1 -1 0 -0 -0 nan
nan 0 -0 0 0 0 0 0 0 0 0 0 0 0 0 0 0 0 0 0 0 -0 -0 -0 -0 -0 -0 -0 -0 -0 0 -0 -0 -0 0 0 -0 -0 -0 -0 -0 -0 -0 -1 -1 0 1 1 0 -0 -0 -1 -1 -1 -1 -2 -3 -3 -0 0 -0 nan
nan 0 -0 -0 0 0 0 0 0 0 0 0 0 0 0 0 0 0 0 -0 -0 -0 -0 -0 0 -0 -0 -1 -0 -0 0 -0 -0 -0 -0 -0 -0 -0 -0 -0 -0 -0 -0 -0 -0 -0 -0 0 0 0 0 0 -0 -0 -1 -1 -2 -3 -3 -1 0 nan
nan -0 -0 -0 -0 -0 -0 0 0 0 0 0 0 0 0 0 0 0 0 -0 -0 -0 -0 -0 0 -0 -1 -0 -0 -0 -0 0 0 -0 -0 0 -0 -0 -0 -0 -0 -0 -0 -0 -0 -0 -1 -0 0 0 0 0 0 0 0 -0 -0 -2 -4 -3 -1 nan
nan 0 0 0 0 0 0 0 0 0 0 0 0 0 0 0 0 0 0 -0 -0 -0 0 0 0 -0 -0 -0 -0 -0 0 0 -0 -0 0 0 0 -0 -0 -0 -0 0 0 0 0 0 -0 -1 -1 -0 -0 0 0 0 0 0 -0 -1 -2 -3 -4 nan
nan 0 0 1 1 0 0 0 0 0 0 0 0 0 0 0 0 0 0 -0 0 0 0 0 -0 -0 -0 0 0 0 0 0 0 0 -0 0 -0 -0 -0 0 0 -0 -0 -0 -0 0 0 -0 -0 -1 -1 -1 -1 -1 -0 -0 -1 -1 -1 -1 -2 nan
nan 0 0 1 1 0 0 0 0 0 0 0 0 0 0 0 0 0 -0 0 0 0 0 -0 -0 -0 0 0 0 0 0 0 0 0 -0 -0 -0 -0 0 0 -0 -0 -0 -0 -0 -0 0 0 0 0 -0 -1 -1 -2 -1 -1 -1 -1 -1 -1 -1 nan
nan 1 1 0 1 1 0 0 -0 -0 0 0 0 0 0 0 0 0 0 0 0 0 0 -0 0 0 0 1 0 0 0 -0 -0 -0 -0 -0 -0 -0 -0 -0 -0 -0 -0 -0 -0 -0 -0 -0 -0 -0 -0 -0 -1 -1 -1 -1 -1 -1 -1 -1 -1 nan
nan 1 0 0 0 0 0 0 0 -0 -0 0 0 0 0 0 0 0 0 0 0 0 -0 0 0 1 1 0 0 0 0 -0 -0 -0 0 -0 -0 -0 -0 -0 -0 -0 -1 -1 -1 -1 -1 -1 -1 -2 -2 -1 -1 -0 -0 -1 -1 -1 -1 -1 -1 nan
nan 0 0 0 -0 -0 0 0 0 0 0 0 0 0 0 0 0 0 0 0 -0 0 0 0 0 1 0 0 0 0 0 0 -0 -0 -0 -0 -0 -0 -1 -0 -0 -1 -1 -1 -1 -1 -2 -2 -2 -1 -1 -1 -0 -0 -0 -0 -0 -1 -1 -1 -1 nan
nan 1 0 0 0 -0 -0 0 0 0 0 0 0 0 0 1 0 0 0 -0 -0 -0 0 0 1 0 0 0 0 0 0 -0 -0 -0 -0 -0 -0 -0 -1 -0 -0 -1 -1 -1 -1 -1 -1 -0 -0 -0 -0 -0 -0 -0 -0 -0 -0 -0 -1 -0 -0 nan
nan 0 0 0 0 0 -0 0 0 0 0 1 1 1 1 1 1 0 0 -0 -0 0 0 1 1 0 -0 -0 0 0 0 0 -0 -0 -0 -0 -0 -1 -1 -0 -0 -1 -1 -1 -0 -0 -0 -0 -0 -0 -0 -0 -0 -0 -0 -0 -1 -0 -0 -1 -0 nan
nan 0 0 0 0 0 0 0 0 0 0 0 0 1 1 0 0 0 -0 0 0 0 0 0 0 0 0 -0 -0 -0 0 0 0 -0 -0 -0 -0 -0 -1 -0 -0 -1 -1 -0 -0 -0 -0 -0 -0 -0 -0 -0 -0 -0 -0 -0 -1 -0 -0 -0 -1 nan
nan nan nan nan nan nan nan nan nan nan nan nan nan nan nan nan nan nan nan nan nan nan nan nan nan nan nan nan nan nan nan nan nan nan nan nan nan nan nan nan nan nan nan nan nan nan nan nan nan nan nan nan nan nan nan nan nan nan nan nan nan nan
Wind_Speed
13 12 12 13 15 19 20 18 16 14 12 10 8 7 6 4 4 4 5 7 7 9 10 9 7 6 8 7 7 9 8 8 8 8 8 8 7 7 6 5 5 4 3 2 1 2 2 1 2 4 4 3 3 3 3 4 3 5 2 9 14 15
13 12 12 13 15 18 19 18 16 14 12 10 8 7 6 6 7 7 8 8 9 10 7 6 6 5 7 7 7 8 8 8 8 8 8 8 8 7 6 5 3 3 2 0 1 2 3 1 5 8 7 6 4 3 5 4 2 4 3 8 14 15
14 12 11 12 14 17 19 18 15 14 11 10 9 8 7 7 7 7 8 9 10 9 4 3 6 4 5 6 6 7 7 7 7 7 7 6 7 7 6 6 4 3 3 2 3 3 1 4 10 11 10 9 5 4 6 5 4 3 1 7 15 16
14 11 8 10 14 17 19 18 15 13 12 11 10 8 7 7 6 4 4 7 8 7 4 2 4 2 2 3 4 5 6 6 6 6 6 5 5 6 7 6 5 6 5 3 5 6 6 9 14 13 11 11 8 7 6 6 9 7 5 10 15 16
12 10 7 10 14 15 17 16 14 12 12 11 8 7 8 8 9 9 6 6 7 5 4 3 2 1 0 1 3 4 5 5 5 6 6 5 5 5 6 6 6 7 7 4 5 7 5 9 13 13 13 13 12 11 8 8 8 7 9 13 14 15
12 9 7 10 11 11 14 12 12 12 10 8 6 6 7 9 11 10 8 7 6 5 4 3 2 1 0 1 1 2 3 4 5 6 6 6 5 7 6 5 7 8 8 7 7 5 5 9 11 11 10 10 11 12 12 11 8 8 11 13 15 16
13 11 10 12 11 11 13 12 14 13 11 10 10 8 7 10 10 8 7 7 6 5 4 3 2 2 2 1 1 1 1 3 3 4 5 5 4 5 4 3 5 6 6 6 7 7 8 9 11 11 10 9 11 12 11 10 9 10 11 11 14 16
14 13 12 13 13 12 12 14 12 10 11 12 12 10 10 10 9 7 6 6 6 5 4 3 2 2 2 1 1 2 1 1 1 2 3 2 2 3 2 3 2 4 5 3 4 7 9 10 12 11 10 10 10 11 10 11 12 13 12 12 14 17
12 12 12 12 13 10 11 11 11 10 11 10 9 10 11 9 8 7 6 5 5 5 4 3 3 3 2 1 1 1 1 0 2 2 1 1 2 3 3 3 1 3 5 4 6 7 7 9 11 10 10 12 12 12 11 12 14 13 13 14 15 17
10 10 11 11 10 8 8 8 11 11 13 11 10 11 9 8 7 6 5 4 4 5 4 3 3 3 2 2 1 1 1 0 2 2 1 1 2 3 3 2 2 3 5 6 7 6 7 9 10 10 10 11 12 12 13 14 14 13 13 14 16 18
7 9 10 9 9 10 8 9 10 11 13 12 11 10 7 7 5 4 4 4 3 3 3 3 4 3 2 2 1 1 1 0 1 1 1 1 2 2 2 2 3 4 5 7 8 8 9 10 10 11 10 10 11 12 14 15 15 14 15 16 18 20
8 9 9 8 11 11 9 9 9 10 10 9 9 8 6 5 4 3 3 3 3 3 2 3 4 3 3 2 1 1 1 1 1 1 1 2 2 2 2 2 3 5 5 6 7 8 9 10 10 10 9 9 10 13 16 16 15 15 15 15 18 19
9 10 9 9 10 9 8 8 7 8 7 8 9 7 6 6 5 4 3 3 3 3 3 3 3 3 3 3 2 2 2 2 2 3 2 2 3 2 2 2 4 5 5 6 6 7 8 10 11 11 11 9 10 14 16 16 16 15 15 16 18 18
9 10 8 7 8 8 8 7 6 6 6 7 8 6 6 6 5 5 4 3 3 3 3 3 2 3 2 3 3 3 3 3 3 4 4 4 4 4 4 4 5 5 6 7 7 7 8 10 11 11 12 12 12 14 15 16 16 15 14 16 18 18
8 10 7 7 7 7 7 7 6 7 7 6 7 6 6 5 4 5 4 3 3 3 3 2 2 3 1 2 3 2 3 3 4 4 4 4 4 4 4 5 6 6 7 8 8 9 9 10 11 11 13 13 13 14 14 15 16 15 14 15 17 17
8 9 9 7 7 7 7 6 5 6 7 6 6 6 6 6 5 5 4 3 3 3 3 2 2 1 2 3 2 2 4 5 5 5 5 5 4 4 6 6 7 8 9 9 10 10 10 10 12 12 13 14 13 14 14 14 14 14 14 14 15 15
9 9 10 9 8 7 7 5 4 5 5 5 5 6 7 6 6 5 3 3 3 2 2 1 1 1 2 3 3 3 4 5 5 6 5 5 5 5 7 8 9 9 10 10 10 10 10 10 12 13 13 13 13 14 14 15 14 13 13 14 14 14
9 9 10 10 8 7 5 4 4 5 5 4 3 5 7 6 6 4 3 3 3 2 2 2 1 2 1 2 3 3 3 4 4 5 6 5 5 5 6 8 8 8 9 10 10 10 11 11 12 13 14 14 13 13 13 14 13 12 12 12 13 14
11 10 11 10 9 7 6 5 5 6 6 4 3 6 8 7 6 6 4 4 4 3 2 1 1 1 0 0 1 2 2 2 2 3 5 5 4 4 5 6 6 7 7 8 9 11 12 12 13 14 15 14 13 13 13 13 13 12 11 12 12 12
12 11 11 11 10 8 7 6 7 6 6 6 6 7 8 7 7 8 6 5 5 4 3 2 2 2 2 3 2 2 3 3 3 3 4 4 4 4 5 6 6 7 7 6 7 9 11 13 14 14 14 14 15 15 14 13 13 13 13 13 12 12
12 11 11 10 9 8 7 6 6 5 5 7 6 5 7 7 8 8 8 7 6 5 4 4 5 5 5 5 4 4 5 5 4 5 5 5 5 5 6 7 6 6 7 7 6 7 10 12 12 14 15 16 16 14 13 13 15 15 15 14 14 16
12 10 10 9 8 7 7 6 6 5 5 7 7 5 6 6 7 8 8 7 7 6 6 6 6 6 6 6 6 6 7 7 7 7 7 7 7 7 8 9 8 8 7 8 7 7 9 11 11 14 17 18 17 16 13 11 11 11 14 15 16 18
12 11 9 9 8 6 7 6 5 5 5 6 6 4 3 5 7 8 8 7 6 6 7 7 7 7 7 7 8 8 9 10 10 9 9 9 10 10 10 11 11 11 11 11 10 10 10 9 12 14 15 16 18 19 15 9 8 10 14 16 16 17
12 11 10 9 8 7 7 6 5 5 4 4 5 3 2 4 4 5 6 6 5 6 6 6 7 8 8 8 8 8 9 10 11 11 11 10 10 11 10 11 12 13 14 14 14 14 11 7 8 12 14 16 17 15 13 13 16 17 14 11 11 13
13 12 11 10 9 7 7 7 6 6 3 2 4 3 2 3 4 4 3 4 5 6 6 6 7 8 8 8 8 8 7 8 9 7 7 7 8 9 9 10 12 11 12 13 14 13 11 7 5 5 9 12 12 10 13 19 23 20 14 12 14 15
14 13 12 11 9 7 6 6 5 4 4 4 5 4 4 5 6 6 5 6 8 7 7 7 8 9 10 10 10 8 5 6 6 2 2 3 6 7 7 8 9 8 7 9 10 10 9 7 5 5 5 4 5 9 15 19 19 20 19 18 19 18
13 14 14 12 10 8 7 6 4 4 6 6 6 6 6 7 8 8 8 8 8 7 7 9 10 12 12 9 6 5 1 2 1 3 4 3 4 4 5 6 6 6 6 6 7 7 8 8 4 7 10 10 10 11 13 13 15 19 22 21 20 19
13 13 13 12 11 9 8 9 8 6 7 7 7 6 7 8 9 10 9 8 8 8 9 11 12 11 7 2 3 3 3 3 3 4 3 2 3 4 5 5 6 6 6 5 6 7 8 9 8 7 8 10 11 12 12 11 11 15 19 22 23 22
13 12 12 13 12 11 10 10 10 7 7 7 5 4 5 6 7 8 7 7 7 8 10 12 9 3 2 3 5 5 5 5 5 4 5 4 4 4 4 5 6 7 7 7 7 7 7 8 9 10 10 10 10 11 11 10 11 13 15 19 21 23
13 13 13 13 11 11 11 11 11 8 5 4 3 3 2 2 4 6 6 6 6 8 9 8 3 4 5 5 6 7 7 7 6 5 6 5 4 4 5 6 7 8 9 9 8 7 8 9 9 9 10 11 11 13 14 14 15 16 16 17 20 23
14 12 11 11 9 8 10 11 11 9 5 3 2 2 3 3 3 4 5 6 6 6 4 2 3 5 7 8 9 8 8 8 7 6 6 6 5 5 7 7 7 8 9 9 9 9 9 10 10 10 11 11 11 12 12 14 16 17 17 18 21 23
12 11 9 8 7 6 5 6 6 5 5 4 3 2 4 5 4 3 3 4 1 2 4 4 5 7 10 10 9 8 8 7 7 7 6 7 7 7 8 9 8 7 9 10 10 10 11 12 12 13 13 14 14 14 13 12 14 15 16 17 19 22
11 10 8 7 7 6 4 1 1 2 3 6 6 5 7 8 6 5 5 3 6 8 7 5 6 10 11 10 9 8 8 8 8 8 7 8 8 8 10 10 9 9 11 13 13 12 12 13 13 14 14 13 14 16 15 13 14 15 15 17 19 21
10 9 8 7 6 6 5 2 2 3 4 7 10 10 10 11 9 8 8 7 9 9 7 7 10 12 12 11 10 10 9 9 10 9 9 9 9 9 11 11 10 11 12 13 14 13 12 11 11 12 12 11 12 13 12 13 14 14 14 16 18 21
11 10 8 7 6 5 5 5 5 6 6 8 12 13 12 11 10 9 9 10 10 7 8 10 12 12 12 12 12 11 11 10 10 11 10 11 11 12 12 12 11 12 13 13 12 12 11 11 11 11 12 13 13 11 12 13 14 14 14 15 17 19
12 10 8 7 6 5 5 6 7 7 7 8 10 12 12 11 10 9 11 12 9 9 11 13 13 11 12 12 12 12 11 11 11 11 12 12 13 13 13 13 12 12 13 11 10 11 12 11 11 11 12 12 10 9 12 13 14 15 15 15 16 17
12 10 8 7 6 5 6 7 8 8 8 9 9 11 11 10 10 11 12 11 10 12 14 14 14 13 12 12 13 13 12 12 12 12 13 14 14 14 13 14 13 12 13 11 10 11 13 12 11 11 12 12 10 9 12 13 14 15 15 15 15 16
Wind_Direction
155 159 161 164 167 166 167 167 167 165 163 161 155 146 135 128 131 123 118 111 103 97 70 49 57 67 56 46 52 59 54 51 48 46 51 57 67 81 96 113 124 131 130 144 202 242 221 111 20 350 332 316 301 273 257 262 137 121 282 285 285 294
155 160 164 167 173 170 168 168 165 162 161 157 146 136 128 124 118 112 108 99 88 85 67 40 56 64 57 50 46 54 51 51 51 43 45 46 49 54 58 69 80 97 92 10 321 279 205 104 6 341 329 312 304 297 281 283 164 172 227 280 282 288
155 161 166 169 174 170 166 167 162 157 154 147 146 150 141 123 103 97 96 88 87 97 116 65 72 70 50 47 42 45 41 42 47 43 48 43 37 38 37 37 35 37 40 40 32 9 281 340 341 330 328 321 304 292 294 302 294 270 327 294 285 286
156 156 162 161 166 168 165 165 158 151 154 152 158 164 133 111 110 124 117 99 101 116 137 108 93 101 43 33 35 40 33 28 32 38 44 46 39 33 29 17 10 16 25 59 66 39 3 325 318 320 325 326 319 316 326 316 305 319 328 291 286 291
151 151 162 149 155 163 159 159 155 156 167 158 160 167 137 142 166 171 160 122 120 135 144 153 160 159 54 19 27 43 39 21 22 32 26 28 33 27 25 12 8 14 15 28 43 32 355 297 299 314 323 329 326 317 309 287 287 301 288 275 275 283
147 153 152 137 151 153 142 150 163 173 169 144 158 182 160 170 176 166 154 136 146 170 172 175 177 167 192 11 21 40 40 19 18 27 16 10 15 18 20 2 355 1 6 8 4 350 288 269 276 288 296 308 307 299 299 294 290 284 278 281 285 284
154 156 138 143 163 149 142 169 184 174 156 160 182 185 169 173 170 160 155 151 169 186 173 172 179 185 203 219 198 183 46 21 13 25 21 11 359 4 3 328 328 332 336 347 344 312 284 284 283 281 275 266 264 268 283 290 285 276 273 284 295 292
158 154 150 165 164 152 168 187 182 152 156 181 179 171 178 177 170 167 172 172 183 188 166 164 160 151 173 203 200 172 112 11 344 68 55 25 326 314 261 241 267 292 293 294 282 272 284 298 298 300 300 298 287 276 277 279 280 279 275 280 286 286
153 152 168 165 144 164 206 189 158 149 172 179 163 178 190 177 171 177 188 189 180 179 171 158 135 132 144 119 60 67 94 328 12 61 82 15 319 288 250 236 248 278 277 256 243 244 257 280 292 295 293 301 300 293 290 278 281 286 284 285 283 279
154 163 165 139 136 188 215 175 157 172 177 165 171 192 181 169 180 181 188 191 173 172 175 159 138 146 159 119 69 36 68 36 29 26 311 352 322 302 299 295 301 285 276 270 269 263 247 251 272 279 272 278 279 283 287 276 275 282 282 282 285 286
154 157 142 135 176 190 184 171 169 181 177 169 181 185 168 177 186 171 173 173 163 163 165 149 129 128 131 122 120 87 65 54 39 347 297 315 301 306 313 302 285 278 271 273 280 274 257 251 264 273 271 279 286 284 285 281 275 277 284 286 289 292
158 161 158 174 188 181 181 181 174 178 179 177 178 171 169 177 159 149 152 141 136 134 130 120 116 121 130 122 105 98 62 30 34 355 335 330 328 335 329 317 288 285 285 284 289 284 277 281 287 290 285 290 299 293 287 286 281 282 290 291 289 288
169 174 177 179 176 180 185 186 186 184 182 178 172 166 160 156 146 136 123 113 111 111 108 107 114 121 125 109 89 79 58 44 29 7 0 2 359 356 353 336 307 309 314 304 306 308 305 303 303 302 297 292 287 286 285 283 285 290 294 296 293 289
175 175 176 169 169 179 173 177 192 186 186 177 166 161 150 147 144 127 116 111 110 113 106 98 103 108 109 99 84 52 31 30 14 0 355 2 357 349 349 326 309 315 313 306 307 306 303 299 295 294 293 289 280 281 284 284 289 291 289 293 296 295
171 166 168 168 167 172 165 170 178 169 176 175 164 158 141 135 135 119 110 109 108 113 109 95 87 93 83 69 72 23 351 343 345 345 339 347 348 338 326 306 304 312 310 309 307 303 305 304 300 296 291 292 292 291 290 290 294 294 289 286 287 290
172 165 164 160 157 162 163 168 176 168 167 173 172 153 134 128 119 106 103 106 104 108 113 111 97 71 19 33 44 343 333 335 337 336 333 334 331 323 316 313 318 317 315 317 314 310 313 313 308 303 297 295 297 298 297 297 298 297 294 289 285 285
170 167 156 149 152 158 154 153 167 171 160 168 171 141 127 120 109 107 108 97 93 98 104 113 104 36 6 6 7 346 338 349 350 337 332 330 324 322 319 325 330 325 322 323 323 319 315 311 308 308 308 304 299 298 302 305 303 300 301 301 298 295
162 160 150 147 153 154 146 138 145 159 153 161 174 133 121 113 106 108 101 87 84 80 75 69 57 49 15 2 5 350 343 355 351 329 322 328 326 324 321 325 329 329 328 326 326 324 319 315 312 312 315 315 310 305 305 306 306 305 307 310 306 301
151 153 150 146 147 149 150 150 149 158 158 171 180 130 120 119 117 111 100 96 99 102 94 80 71 100 193 52 1 322 323 318 310 309 314 319 316 316 320 321 325 328 331 331 331 330 326 322 319 318 318 320 320 315 316 317 313 311 313 313 307 304
144 146 147 144 148 154 159 164 157 149 157 173 164 133 130 140 141 134 130 126 125 136 147 163 174 177 201 201 216 258 273 264 268 280 286 289 293 308 314 316 320 321 324 329 335 334 327 322 321 321 318 318 321 323 329 331 323 317 317 319 315 313
141 143 146 146 154 155 154 158 144 135 157 161 148 148 163 164 161 158 155 156 158 166 180 196 202 199 207 215 221 237 252 255 257 267 276 281 286 296 298 300 305 308 315 317 325 331 320 317 323 326 319 317 323 330 335 332 321 312 311 317 319 316
142 145 150 154 161 156 149 145 130 134 159 155 153 180 189 169 174 185 181 176 181 195 207 215 221 222 224 229 239 250 258 263 261 265 276 282 283 285 285 287 288 289 296 300 306 314 312 321 331 328 321 322 325 325 328 328 313 302 304 311 318 318
146 150 156 158 159 155 151 146 142 163 188 191 186 191 178 161 182 201 198 192 200 228 235 239 254 262 258 251 255 263 267 269 266 266 270 276 281 283 283 285 286 284 284 283 282 282 291 322 336 328 323 325 325 322 327 327 288 287 306 314 320 322
151 152 152 149 153 157 154 146 158 188 205 211 188 177 175 177 202 211 203 205 226 264 269 268 275 280 278 269 264 268 274 274 271 267 269 275 281 284 287 288 287 286 285 284 280 276 280 295 325 334 331 327 326 323 328 320 299 298 311 314 309 311
153 150 143 137 140 152 157 152 161 181 188 171 164 181 222 220 239 239 233 253 276 294 300 296 287 286 286 283 277 276 276 275 275 276 276 283 289 289 289 285 285 286 284 286 287 287 287 273 275 326 335 335 339 332 323 320 314 308 306 299 298 300
152 149 146 139 135 139 143 137 144 174 181 182 183 189 214 237 257 262 267 287 299 304 306 302 292 289 288 285 286 287 282 274 280 340 20 322 306 303 301 295 296 300 295 293 295 296 295 278 246 243 261 295 324 320 321 326 327 317 303 297 300 303
158 155 155 151 146 144 136 126 128 170 183 200 212 207 225 251 265 271 277 290 297 293 290 290 286 286 287 289 300 310 315 261 241 78 54 354 329 341 349 337 328 329 327 318 314 314 313 311 282 241 242 249 257 275 299 316 329 328 319 308 299 298
168 168 165 160 163 169 167 167 172 190 203 216 231 230 234 245 253 264 275 283 280 275 277 281 282 285 290 327 50 48 69 101 123 100 71 48 19 22 20 360 346 345 346 337 328 329 327 327 326 307 285 271 269 277 289 301 317 327 330 323 310 301
166 176 172 167 171 172 168 169 174 195 220 220 219 225 230 237 245 253 264 266 267 277 285 288 289 299 43 72 92 93 91 95 99 91 84 81 57 37 25 12 6 359 359 356 344 337 330 328 337 337 329 321 318 317 318 326 327 322 328 330 322 314
168 174 169 167 169 165 161 162 168 178 203 213 197 197 191 204 239 246 256 260 267 281 290 303 322 102 91 82 103 108 103 96 90 82 80 78 61 38 28 23 15 7 6 3 355 349 340 338 344 341 339 344 345 343 343 345 341 334 330 327 322 318
171 171 166 165 160 158 164 167 168 166 167 182 184 181 160 167 228 236 248 262 267 274 283 359 52 94 102 97 99 102 99 95 90 81 75 72 57 44 44 35 21 17 16 11 5 2 359 356 355 351 352 357 356 359 0 349 338 335 332 327 323 320
161 160 157 153 137 132 152 165 162 157 159 163 170 172 154 163 191 189 212 253 229 124 105 91 85 96 103 100 98 98 94 90 87 79 72 69 62 60 59 47 39 41 37 34 28 22 21 17 14 12 9 10 9 8 6 350 337 337 336 332 329 324
150 156 151 145 140 130 135 164 154 162 175 170 171 165 159 172 178 166 172 157 116 110 104 112 118 108 104 99 96 94 88 85 82 76 73 73 71 71 66 53 48 55 50 42 37 35 30 22 22 20 14 20 19 8 359 350 345 346 344 339 336 329
145 150 151 154 159 141 128 142 166 190 192 169 163 163 170 179 172 170 173 137 104 101 104 118 120 112 106 100 94 89 85 84 82 79 80 80 77 74 69 59 55 62 59 45 39 42 37 26 28 25 18 31 34 11 346 338 345 351 348 345 343 336
136 142 152 159 161 145 145 168 176 183 179 164 164 168 172 172 171 176 157 115 100 111 117 115 113 109 106 101 94 89 85 84 85 86 85 82 80 76 71 65 63 67 62 45 35 39 42 36 33 29 25 31 34 7 332 337 353 356 355 353 346 339
139 141 147 148 151 152 163 174 169 163 158 155 159 162 163 164 163 150 121 107 116 130 121 112 108 105 103 100 97 93 88 86 87 88 87 83 79 76 73 68 65 68 63 48 33 35 40 39 33 34 33 28 26 354 333 351 4 357 360 359 346 339
144 142 140 143 152 151 147 145 141 142 150 151 146 148 153 148 127 111 110 117 127 125 118 112 108 104 102 100 97 93 90 89 87 86 86 82 78 76 75 71 66 66 62 49 39 35 32 33 32 39 37 21 10 356 351 6 6 0 3 353 340 340
Height
1535 1536 1537 1538 1539 1540 1541 1542 1543 1544 1545 1546 1546 1548 1548 1549 1550 1550 1551 1552 1553 1553 1554 1554 1554 1554 1554 1555 1554 1555 1555 1555 1555 1555 1555 1555 1556 1556 1557 1557 1557 1557 1558 1558 1558 1558 1558 1558 1558 1558 1559 1558 1559 1559 1558 1559 1558 1559 1560 1559 1557 1557
1535 1536 1537 1538 1539 1540 1541 1542 1543 1544 1545 1546 1547 1548 1548 1549 1550 1551 1552 1553 1553 1554 1555 1555 1554 1554 1555 1555 1555 1555 1555 1556 1556 1556 1556 1556 1556 1556 1557 1557 1557 1558 1557 1558 1557 1557 1558 1557 1558 1558 1558 1559 1558 1558 1558 1558 1558 1559 1560 1559 1557 1557
1535 1536 1537 1538 1539 1540 1541 1542 1543 1544 1545 1546 1547 1548 1548 1549 1551 1552 1553 1554 1554 1555 1555 1555 1554 1555 1555 1555 1555 1555 1555 1556 1556 1556 1556 1556 1556 1556 1557 1557 1557 1557 1557 1557 1557 1557 1557 1557 1557 1558 1558 1558 1558 1558 1558 1557 1558 1559 1559 1559 1558 1557
1536 1537 1538 1538 1539 1540 1541 1543 1544 1545 1546 1546 1547 1548 1548 1550 1552 1554 1554 1554 1555 1555 1555 1555 1555 1555 1555 1556 1555 1555 1555 1556 1556 1557 1556 1556 1556 1556 1556 1557 1557 1557 1557 1557 1557 1557 1557 1556 1557 1558 1558 1558 1558 1558 1558 1558 1559 1559 1560 1559 1558 1557
1537 1538 1539 1539 1540 1541 1542 1543 1544 1545 1546 1547 1547 1548 1549 1552 1553 1554 1555 1555 1555 1555 1554 1554 1555 1555 1555 1556 1555 1555 1556 1556 1556 1556 1557 1556 1556 1556 1556 1557 1557 1557 1557 1558 1557 1557 1558 1559 1558 1558 1558 1558 1558 1558 1558 1559 1559 1559 1560 1558 1557 1557
1539 1540 1540 1541 1542 1543 1543 1544 1546 1546 1547 1548 1549 1549 1550 1552 1553 1554 1555 1555 1555 1555 1554 1554 1555 1555 1555 1555 1555 1556 1556 1556 1556 1556 1557 1556 1556 1556 1556 1556 1557 1557 1557 1557 1557 1558 1559 1560 1560 1559 1559 1559 1559 1559 1559 1559 1559 1559 1559 1557 1557 1556
1541 1542 1542 1543 1544 1544 1545 1546 1547 1547 1548 1549 1550 1550 1551 1552 1553 1554 1555 1555 1556 1555 1555 1554 1555 1556 1556 1556 1556 1556 1556 1556 1557 1557 1556 1556 1556 1556 1556 1557 1557 1557 1557 1557 1558 1559 1559 1560 1559 1559 1559 1559 1559 1559 1559 1558 1558 1558 1558 1557 1556 1554
1543 1544 1545 1546 1546 1547 1548 1548 1548 1548 1549 1549 1550 1551 1551 1552 1553 1554 1555 1556 1556 1556 1556 1555 1556 1555 1555 1556 1556 1557 1557 1557 1557 1557 1556 1556 1557 1557 1557 1558 1558 1557 1557 1557 1558 1559 1559 1559 1558 1558 1558 1558 1558 1558 1558 1558 1558 1557 1557 1556 1554 1553
1545 1546 1547 1548 1549 1550 1550 1549 1549 1550 1550 1550 1551 1551 1552 1553 1554 1554 1555 1556 1557 1557 1557 1556 1556 1556 1555 1556 1556 1557 1557 1557 1557 1557 1556 1556 1557 1558 1558 1558 1558 1557 1557 1557 1557 1558 1558 1558 1558 1557 1557 1557 1557 1557 1557 1557 1556 1556 1555 1555 1553 1551
1549 1550 1551 1551 1553 1553 1552 1552 1552 1552 1552 1551 1551 1551 1552 1553 1554 1554 1555 1556 1557 1557 1557 1557 1557 1557 1557 1557 1557 1557 1557 1557 1557 1557 1558 1557 1557 1558 1557 1557 1557 1557 1557 1556 1556 1557 1556 1557 1556 1556 1556 1556 1555 1555 1555 1554 1554 1554 1553 1553 1551 1550
1552 1553 1553 1554 1555 1554 1555 1555 1555 1554 1553 1552 1552 1552 1552 1553 1553 1554 1555 1556 1556 1557 1557 1557 1557 1557 1557 1558 1558 1557 1557 1557 1557 1558 1558 1558 1558 1558 1558 1558 1557 1557 1557 1556 1555 1555 1555 1555 1555 1554 1555 1554 1554 1553 1552 1552 1552 1552 1552 1551 1549 1549
1553 1553 1553 1554 1555 1555 1556 1557 1556 1555 1555 1554 1553 1553 1553 1553 1554 1554 1555 1556 1556 1557 1557 1557 1557 1557 1557 1557 1557 1557 1557 1557 1557 1558 1558 1558 1558 1558 1557 1557 1557 1557 1556 1555 1555 1554 1554 1554 1553 1553 1553 1553 1553 1552 1551 1551 1551 1551 1550 1550 1549 1547
1551 1551 1551 1553 1555 1555 1556 1557 1557 1556 1556 1555 1554 1554 1553 1553 1554 1554 1555 1556 1556 1556 1557 1557 1557 1557 1557 1557 1557 1557 1556 1556 1557 1557 1557 1557 1557 1556 1556 1556 1556 1556 1555 1554 1554 1553 1553 1553 1552 1552 1552 1552 1552 1552 1551 1550 1549 1549 1548 1548 1547 1546
1549 1550 1551 1552 1554 1554 1555 1557 1557 1557 1556 1556 1555 1554 1553 1553 1553 1554 1555 1556 1556 1556 1557 1557 1557 1557 1557 1556 1556 1556 1556 1556 1556 1556 1556 1556 1556 1556 1555 1555 1554 1554 1554 1554 1553 1553 1552 1552 1551 1551 1551 1551 1551 1550 1549 1548 1548 1547 1547 1547 1546 1544
1548 1549 1550 1551 1553 1555 1556 1557 1557 1557 1557 1557 1556 1555 1553 1553 1553 1554 1555 1556 1556 1556 1556 1556 1556 1556 1556 1556 1556 1555 1555 1555 1555 1555 1555 1555 1555 1555 1554 1554 1553 1553 1553 1552 1552 1552 1551 1551 1550 1550 1549 1549 1549 1548 1548 1547 1547 1546 1546 1546 1545 1544
1546 1547 1549 1550 1552 1554 1556 1556 1557 1557 1556 1556 1557 1556 1554 1554 1554 1554 1555 1555 1556 1556 1556 1556 1556 1556 1555 1555 1555 1555 1555 1555 1554 1554 1554 1554 1554 1553 1553 1553 1552 1552 1552 1551 1551 1551 1550 1550 1549 1548 1548 1547 1547 1547 1546 1546 1545 1545 1544 1544 1543 1543
1545 1546 1548 1549 1551 1553 1555 1555 1556 1557 1557 1557 1558 1556 1554 1554 1554 1555 1555 1555 1555 1555 1556 1556 1556 1555 1555 1555 1554 1554 1554 1554 1554 1553 1553 1553 1552 1552 1552 1551 1551 1551 1551 1550 1550 1550 1549 1549 1548 1547 1546 1546 1545 1545 1544 1544 1544 1543 1543 1542 1541 1541
1545 1546 1548 1549 1551 1552 1554 1555 1556 1557 1558 1557 1557 1556 1554 1555 1555 1556 1555 1555 1555 1555 1555 1555 1555 1555 1554 1554 1554 1553 1553 1553 1553 1552 1551 1551 1551 1551 1551 1551 1550 1550 1550 1549 1549 1549 1548 1548 1547 1546 1545 1544 1544 1543 1543 1542 1542 1542 1541 1540 1540 1539
1546 1547 1548 1549 1550 1552 1553 1555 1556 1558 1558 1558 1558 1557 1556 1556 1556 1556 1556 1555 1555 1554 1555 1555 1554 1554 1554 1553 1553 1552 1552 1551 1551 1551 1551 1550 1550 1550 1550 1550 1549 1549 1549 1549 1549 1548 1548 1546 1545 1545 1543 1543 1542 1541 1541 1541 1540 1540 1540 1539 1538 1537
1545 1547 1548 1549 1550 1552 1554 1555 1556 1556 1557 1559 1560 1559 1557 1556 1556 1556 1555 1555 1554 1554 1554 1554 1553 1553 1553 1553 1552 1551 1551 1550 1550 1550 1550 1550 1549 1549 1549 1549 1549 1548 1548 1548 1548 1548 1547 1545 1544 1543 1542 1541 1541 1540 1539 1539 1539 1538 1538 1537 1537 1536
1544 1546 1547 1548 1550 1552 1554 1556 1555 1555 1558 1561 1562 1559 1557 1556 1556 1555 1554 1554 1553 1553 1553 1553 1553 1553 1552 1552 1551 1551 1550 1550 1549 1549 1549 1549 1549 1549 1549 1548 1548 1548 1548 1547 1547 1547 1545 1544 1543 1542 1540 1539 1539 1538 1538 1538 1537 1537 1536 1536 1536 1535
1543 1545 1546 1548 1549 1550 1553 1555 1555 1556 1561 1563 1560 1558 1557 1556 1555 1554 1554 1553 1553 1552 1552 1552 1552 1552 1552 1552 1551 1550 1549 1549 1549 1548 1548 1548 1548 1548 1548 1548 1548 1547 1547 1547 1546 1546 1545 1544 1543 1541 1540 1538 1537 1536 1537 1537 1537 1536 1536 1535 1534 1534
1542 1544 1546 1548 1549 1550 1552 1554 1555 1559 1562 1562 1559 1557 1556 1555 1554 1553 1553 1553 1552 1552 1552 1552 1552 1552 1552 1551 1550 1550 1549 1548 1548 1547 1547 1547 1547 1547 1547 1547 1546 1546 1546 1546 1545 1545 1545 1544 1543 1542 1540 1539 1537 1535 1535 1535 1535 1535 1535 1534 1533 1533
1542 1544 1546 1548 1549 1550 1551 1553 1556 1560 1561 1560 1558 1557 1555 1554 1553 1553 1553 1552 1552 1552 1551 1551 1551 1551 1551 1550 1550 1549 1548 1547 1546 1546 1546 1546 1546 1545 1545 1545 1545 1544 1544 1544 1544 1543 1544 1544 1543 1542 1541 1539 1538 1536 1535 1534 1533 1532 1533 1533 1532 1532
1541 1543 1545 1547 1548 1550 1551 1552 1556 1559 1559 1558 1557 1555 1554 1553 1552 1552 1552 1552 1551 1551 1551 1551 1550 1550 1549 1549 1548 1548 1547 1546 1545 1545 1545 1545 1545 1544 1544 1544 1543 1543 1543 1542 1542 1542 1542 1542 1542 1543 1542 1540 1539 1538 1536 1535 1532 1530 1530 1530 1530 1530
1540 1541 1544 1546 1548 1549 1551 1553 1555 1557 1556 1556 1555 1554 1553 1552 1551 1551 1551 1551 1551 1550 1550 1550 1550 1549 1548 1547 1547 1546 1546 1545 1545 1545 1545 1544 1544 1543 1543 1543 1543 1542 1542 1541 1541 1541 1540 1540 1541 1541 1541 1541 1541 1540 1537 1535 1533 1530 1527 1527 1528 1527
1538 1540 1542 1544 1546 1547 1549 1552 1553 1554 1554 1554 1553 1553 1551 1551 1550 1550 1550 1550 1550 1550 1550 1550 1549 1548 1547 1546 1546 1545 1545 1544 1544 1544 1544 1543 1543 1543 1543 1543 1542 1542 1541 1541 1540 1540 1539 1539 1539 1539 1539 1539 1539 1539 1537 1536 1535 1532 1528 1525 1524 1524
1537 1539 1541 1542 1544 1546 1548 1551 1553 1553 1553 1552 1552 1551 1551 1550 1549 1549 1549 1550 1549 1550 1549 1549 1548 1547 1546 1546 1545 1545 1544 1544 1543 1543 1543 1543 1543 1543 1543 1542 1542 1541 1541 1541 1540 1539 1539 1538 1538 1537 1537 1537 1537 1536 1536 1536 1535 1533 1530 1526 1523 1522
1538 1540 1541 1543 1545 1547 1549 1551 1552 1552 1551 1551 1550 1550 1549 1548 1548 1548 1548 1549 1549 1549 1549 1548 1547 1547 1546 1545 1544 1544 1544 1544 1544 1543 1543 1543 1543 1543 1543 1542 1542 1541 1541 1541 1540 1540 1539 1538 1537 1537 1536 1535 1535 1534 1534 1534 1533 1532 1530 1528 1525 1522
1538 1541 1542 1544 1546 1547 1549 1549 1550 1550 1550 1549 1549 1548 1548 1548 1547 1548 1548 1548 1548 1548 1548 1547 1546 1546 1545 1545 1544 1544 1544 1544 1544 1544 1543 1543 1543 1543 1542 1542 1542 1542 1541 1541 1540 1540 1539 1538 1537 1537 1536 1535 1534 1533 1533 1532 1532 1531 1530 1529 1526 1524
1538 1541 1543 1544 1546 1546 1547 1547 1548 1548 1548 1547 1547 1547 1547 1548 1548 1548 1548 1547 1547 1548 1547 1546 1546 1545 1545 1545 1545 1545 1544 1544 1544 1544 1544 1543 1543 1543 1542 1542 1542 1542 1541 1541 1541 1540 1539 1538 1537 1537 1536 1535 1535 1534 1534 1534 1533 1531 1530 1529 1526 1523
1539 1540 1542 1543 1544 1545 1545 1545 1545 1545 1545 1546 1546 1547 1547 1548 1548 1548 1548 1547 1547 1547 1547 1546 1546 1545 1545 1545 1545 1545 1545 1544 1544 1544 1544 1543 1543 1543 1543 1543 1542 1542 1542 1541 1541 1540 1539 1539 1538 1537 1536 1536 1535 1535 1535 1535 1533 1532 1531 1529 1527 1524
1539 1540 1541 1542 1543 1543 1544 1544 1544 1544 1544 1545 1546 1547 1548 1548 1548 1548 1547 1547 1546 1546 1546 1545 1545 1545 1545 1546 1546 1545 1545 1545 1544 1544 1544 1543 1543 1543 1543 1543 1542 1542 1542 1542 1541 1541 1540 1539 1539 1538 1537 1537 1536 1536 1536 1535 1533 1532 1531 1529 1527 1524
1538 1539 1540 1541 1541 1542 1543 1543 1543 1543 1544 1545 1545 1546 1547 1547 1547 1547 1546 1546 1546 1546 1545 1545 1545 1545 1546 1546 1546 1546 1545 1545 1544 1544 1544 1544 1544 1543 1543 1543 1543 1542 1542 1542 1542 1541 1541 1540 1539 1538 1538 1537 1537 1537 1536 1534 1533 1532 1530 1528 1527 1524
1539 1539 1540 1540 1541 1541 1542 1542 1543 1543 1543 1544 1544 1545 1545 1545 1546 1546 1545 1546 1546 1546 1545 1545 1546 1546 1546 1546 1546 1546 1546 1545 1545 1545 1545 1544 1544 1543 1543 1543 1543 1543 1543 1543 1543 1542 1541 1540 1539 1539 1538 1537 1537 1537 1535 1534 1532 1531 1530 1528 1527 1526
1539 1540 1540 1540 1540 1541 1541 1541 1541 1542 1542 1543 1543 1544 1544 1544 1544 1544 1545 1545 1545 1545 1545 1546 1546 1547 1547 1547 1547 1546 1546 1546 1545 1545 1545 1544 1544 1544 1543 1544 1543 1543 1543 1543 1543 1542 1541 1540 1539 1538 1538 1537 1537 1536 1534 1533 1532 1530 1529 1529 1527 1525
1538 1539 1540 1540 1540 1540 1540 1540 1540 1541 1541 1542 1542 1543 1543 1543 1543 1544 1545 1545 1545 1545 1546 1547 1547 1548 1548 1548 1547 1547 1547 1546 1546 1546 1545 1545 1544 1544 1544 1544 1544 1544 1543 1543 1543 1542 1541 1540 1539 1538 1538 1537 1536 1535 1534 1532 1531 1530 1529 1528 1526 1525